This is the latest recevied weather packets stored in our database for station/object KM4KBD. If no packets are shown the sender has not sent any weather packets the latest 10 day(s).
| Time | Temp. | Humidity | Pressure | Rain* | Wind** | Luminosity | Snow |
|---|---|---|---|---|---|---|---|
| 1778075869 | 10° C | 99% | 1017.7 hPa | 0 mm | - | 63 W/m² | - |
| 1778075565 | 10° C | 99% | 1017.4 hPa | 0 mm | - | 67 W/m² | - |
| 1778075262 | 10° C | 99% | 1017.7 hPa | 0 mm | - | 74 W/m² | - |
| 1778074958 | 10° C | 99% | 1017.4 hPa | 0 mm | - | 71 W/m² | - |
| 1778074656 | 10° C | 99% | 1017.3 hPa | 0 mm | - | 91 W/m² | - |
| 1778074352 | 10° C | 99% | 1017 hPa | 0 mm | - | 90 W/m² | - |
| 1778074049 | 9.44° C | 99% | 1017 hPa | 0 mm | - | 84 W/m² | - |
| 1778073746 | 9.44° C | 99% | 1017.3 hPa | 0 mm | - | 65 W/m² | - |
| 1778073444 | 9.44° C | 99% | 1017.2 hPa | 0 mm | - | 47 W/m² | - |
| 1778073140 | 9.44° C | 99% | 1017 hPa | 0 mm | - | 52 W/m² | - |
| 1778072837 | 9.44° C | 99% | 1016.9 hPa | 0 mm | - | 49 W/m² | - |
| 1778072534 | 9.44° C | 99% | 1017.1 hPa | 0 mm | - | 46 W/m² | - |
| 1778072232 | 9.44° C | 99% | 1017 hPa | 0 mm | - | 46 W/m² | - |
| 1778071930 | 9.44° C | 99% | 1016.7 hPa | 0 mm | - | 38 W/m² | - |
| 1778071627 | 9.44° C | 99% | 1016.8 hPa | 0 mm | - | 28 W/m² | - |
| 1778071326 | 9.44° C | 99% | 1016.7 hPa | 0 mm | - | 33 W/m² | - |
| 1778071022 | 9.44° C | 99% | 1017.1 hPa | 0 mm | - | 23 W/m² | - |
| 1778070721 | 9.44° C | 99% | 1016.9 hPa | 1.27 mm | - | 27 W/m² | - |
| 1778070417 | 9.44° C | 99% | 1016.6 hPa | 1.27 mm | - | 25 W/m² | - |
| 1778070115 | 10° C | 99% | 1016.6 hPa | 0 mm | - | 20 W/m² | - |
| 1778069813 | 10° C | 99% | 1016.1 hPa | 0 mm | - | 20 W/m² | - |
| 1778069508 | 10° C | 99% | 1015.9 hPa | 0 mm | - | 23 W/m² | - |
| 1778069207 | 10° C | 99% | 1016 hPa | 0 mm | - | 28 W/m² | - |
| 1778068904 | 10° C | 99% | 1015.8 hPa | 0 mm | - | 22 W/m² | - |
| 1778068602 | 10.56° C | 99% | 1015.8 hPa | 0 mm | - | 18 W/m² | - |
* Rain latest hour (hover to see other rain measurements)
** Current wind speed in m/s (hover to see current wind gust speed)